Regional Weather Roundup
Issued by NWS

Home | Current Version | Previous Version | Graphics & Text | Print | Product List | Glossary On
Versions: 1 2 3 4 5 6 7 8 9 10 11 12 13 14 15 16 17 18 19 20 21 22 23 24 25 26 27 28 29 30 31 32 33 34 35 36 37 38 39 40 41 42 43 44 45 46 47 48 49 50
221
ASUS45 KTFX 270810
RWRMT
MONTANA REGIONAL WEATHER ROUNDUP
NATIONAL WEATHER SERVICE GREAT FALLS MT
200 AM MDT SAT MAY 27 2017

NOTE: "FAIR" INDICATES FEW OR NO CLOUDS BELOW 12000 FEET WITH NO
SIGNIFICANT WEATHER AND/OR OBSTRUCTIONS TO VISIBILITY.

MTZ001>007-043-270900-
WEST OF THE DIVIDE

CITY           SKY/WX    TMP DP  RH WIND       PRES   REMARKS
KALISPELL      CLEAR     42  40  92 W5        30.02R
MISSOULA       CLOUDY    51  44  77 CALM      30.07R
BUTTE          CLOUDY    44  34  67 SE3       30.12R
MULLAN PASS    CLEAR     46  30  53 NW6       30.13R
ANACONDA         N/A     52  34  50 W12       30.09R
DEER LODGE       N/A     46  39  76 CALM      30.11R
EUREKA           N/A     45  37  76 CALM      30.01R
HAMILTON         N/A     54  37  54 S5        30.09R
PLAINS           N/A     45  35  67 CALM      30.05R
RONAN            N/A     54  45  71 CALM      30.07R
$$

MTZ008-052>055-270900-
SOUTHWEST MONTANA

CITY           SKY/WX    TMP DP  RH WIND       PRES   REMARKS
BOZEMAN        MOCLDY    41  37  86 SE8       30.09R
DILLON         CLOUDY    44  34  67 S8        30.10R
ENNIS          MOCLDY    43  36  75 SE8       30.15S
THREE FORKS      N/A     46  40  79 W5        30.07R
TWIN BRIDGES     N/A     47  31  54 SE2       30.08R
$$

MTZ009-010-012-014-046-048-049-054-270900-
EAST SLOPES AND CENTRAL MONTANA

CITY           SKY/WX    TMP DP  RH WIND       PRES   REMARKS
CUT BANK       CLEAR     43  35  73 W10       29.98S
GREAT FALLS    CLEAR     47  38  71 SW12      30.01R
MALMSTROM AFB  CLEAR     48  39  71 SW12      30.00S
HELENA         CLOUDY    45  40  82 W6        30.06R
CHOTEAU          N/A     46  36  66 SW7       30.03R
CONRAD           N/A     43  43 100 SW3       30.01R
$$

MTZ011-013-016-021-045-047-050-051-270900-
NORTH CENTRAL MONTANA

CITY           SKY/WX    TMP DP  RH WIND       PRES   REMARKS
HAVRE          PTCLDY    46  37  71 SW12      29.91S
LEWISTOWN      CLEAR     39  33  79 SE7       30.02R
N BAR RANCH      N/A     41  30  65 W7        30.04S
CHINOOK          N/A     45  36  70 W6        29.90S
FORT BENTON      N/A     48  37  66 CALM      29.98R
$$

MTZ017>020-022>027-061-062-270900-
NORTHEAST MONTANA

CITY           SKY/WX    TMP DP  RH WIND       PRES   REMARKS
GLASGOW        CLOUDY    47  40  76 NW6       29.90R
JORDAN           N/A     40  34  79 NW8       29.93S
SIDNEY         CLEAR     47  38  71 W5        29.88R
WOLF POINT     CLEAR     43  37  79 SW6       29.88S
MALTA          MOCLDY    43  39  87 W6        29.89F
PLENTYWOOD       N/A     46  37  71 CALM      29.85R
POPLAR           N/A     43  37  81 CALM      29.88R
SCOBEY           N/A     47  30  51 CALM      29.85
$$

MTZ028>42-056>058-270900-
SOUTHCENTRAL AND SOUTHEAST MONTANA

CITY           SKY/WX    TMP DP  RH WIND       PRES   REMARKS
BAKER          CLEAR     44  35  70 W3        29.94S
BILLINGS       PTCLDY    48  38  68 SW12      30.02R
LIVINGSTON     PTCLDY    39  36  89 NW10      30.06S
MILES CITY     PTCLDY    45  31  58 W8        29.95R
BIG TIMBER     PTCLDY    45  36  70 W15       30.07S
EKALAKA          N/A     48  36  63 SW8       29.95
FORSYTH          N/A     52  39  62 SW5       29.97R
LAUREL           N/A     42  34  73 CALM      30.01F
ROUNDUP          N/A     43  36  76 SW7       29.92S
$$

REGIONAL REPORTS...DAKOTAS

CITY           SKY/WX    TMP DP  RH WIND       PRES   REMARKS
WILLISTON      CLEAR     48  40  73 W6        29.85R
MINOT          CLEAR     52  39  61 W12       29.81S
DICKINSON      CLEAR     41  33  73 W8        29.87F
BEACH            N/A     43  37  81 SW3       29.94S
CROSBY           N/A     48  41  76 W13       29.81F
TIOGA            N/A     46  41  81 W9        29.84S
WATFORD CITY     N/A     46  37  71 SW7       29.87S
BISMARCK       PTCLDY    48  37  65 CALM      29.86S
GRAND FORKS    CLOUDY    53  43  68 SW9       29.77F
FARGO          CLOUDY    51  43  74 SW8       29.82S
BUFFALO SD       N/A     44  37  76 W12       29.88S
RAPID CITY     CLOUDY    50  48  93 SW6       29.97F
$$

REGIONAL REPORTS...WYOMING/IDAHO/WASHINGTON

CITY           SKY/WX    TMP DP  RH WIND       PRES   REMARKS
GILLETTE       CLOUDY    46  44  93 W9        30.01S
SHERIDAN       CLEAR     41  37  86 N3        30.02R
BUFFALO WY     CLOUDY    42  35  76 W8        30.04S
CODY           CLEAR     43  35  73 W5        30.07S
YELLOWSTONE LA   N/A     29  29 100 CALM      30.16R
IDAHO FALLS    PTCLDY    41  39  93 CALM      30.14S
SALMON         CLOUDY    48  41  76 CALM      30.09R
BOISE          CLEAR     55  41  59 SE9       30.06S
SPOKANE        CLEAR     57  41  55 SW8       30.03R
$$

REGIONAL REPORTS...ALBERTA

CITY           SKY/WX    TMP DP  RH WIND       PRES   REMARKS
EDMONTON       CLEAR     50  41  71 W6        29.84R
CALGARY        MOCLDY    59  30  33 W14       29.93R
LETHBRIDGE     MOCLDY    50  39  66 W9        29.93R
MEDICINE HAT   CLOUDY    54  43  66 SW10      29.85S
WATERTON GATE    N/A     46  32  57 SW10        N/A
CARDSTON         N/A     48  34  57 SW9         N/A
$$

REGIONAL REPORTS...SASKATCHEWAN

CITY           SKY/WX    TMP DP  RH WIND       PRES   REMARKS
SWIFT CURRENT  MOCLDY    46  43  87 SW10      29.82F
REGINA         PTCLDY    43  39  87 W9        29.77S
SASKATOON      CLEAR     39  37  93 W7        29.78S
CYPRESS HILLS    N/A     50  32  50 W3          N/A
VAL MARIE        N/A     48  41  76 SE2         N/A
ROCKGLEN         N/A     46  39  76 W16         N/A
$$




USA.gov is the U.S. government's official web portal to all federal, state and local government web resources and services.